Вернуться в каталог

STARLINK-11619

АктивенСвязьVLEO
NORAD 63272·PAYLOAD·🇺🇸 United States

Запущен Mar 15, 2025 с Cape Canaveral Space Force Station

Loading…

Ближайшие Пролёты (ближайшие 24 часа)

TLE

СвежийSource: CelesTrak SupGP

Эпоха: Sep 15, 2026, 02:40 UTC

1 63272C 25053H   26258.11159722 -.00086049  00000+0 -66796-3 0  2589
2 63272  43.0011  50.4902 0001781 268.2586 329.9004 15.70894171    16

Отслеживайте STARLINK-11619 в реальном времени с AllMySat

Download on the App Store